User: anonymous
Location: Cypress Hills Dark-Sky Preserve - CHICO
(49.6176°N, 110.2634°W)
Time: 23:40:46
(UTC-06:00)
Language:

SPOT 5 - Orbit

View from above orbital plane
View from above orbital plane
View from above satellite
View from above satellite

Ground track
Ground track

The orbit data is extracted from the following two-line orbital elements,

1 27421U 02021A   14260.85701255  .00000293  00000-0  15753-3 0  9333
2 27421 098.5520 321.0047 0001155 095.6202 317.2760 14.20102112641472
Epoch (UTC): 17 September 2014 20:34:05
Eccentricity: 0.0001155
inclination: 98.5520°
perigee height: 824 km
apogee height: 826 km
right ascension of ascending node: 321.0047°
argument of perigee: 95.6202°
revolutions per day: 14.20102112
mean anomaly at epoch: 317.2760°
orbit number at epoch: 64147

The dashed part of the orbit path shows where the satellite is in the earth's shadow,  

DLR